Regional Weather Roundup
Issued by NWS Albany, NY

Home | Current Version | Previous Version | Text Only | Print | Product List | Glossary On
Versions: 1 2 3 4 5 6 7 8 9 10 11 12 13 14 15 16 17 18 19 20 21 22 23 24 25 26 27
000
ASUS41 KALY 211210
RWRALY

NEW YORK STATE HOURLY WEATHER ROUNDUP
NATIONAL WEATHER SERVICE ALBANY NY
700 AM EST TUE FEB 21 2017

NOTE: "FAIR" INDICATES FEW OR NO CLOUDS BELOW 12,000 FEET WITH NO
SIGNIFICANT WEATHER AND/OR NO OBSTRUCTIONS TO VISIBILITY.

NYZ032-033-038>043-046>054-057>066-NYZ062>081-082-084-211300-
EAST


CITY           SKY/WX    TMP DP  RH WIND       PRES   REMARKS
ALBANY         CLOUDY    18  14  84 CALM      30.37F
GLENS FALLS    CLOUDY    15  10  80 CALM      30.36F
POUGHKEEPSIE   CLOUDY    20  15  81 CALM      30.37F
NEWBURGH       MOCLDY    23  18  80 CALM      30.37F
MONTGOMERY     CLOUDY    22  16  78 CALM      30.35F
WHITE PLAINS   CLOUDY    30  10  43 E5        30.34F WCI  25
ISLIP          CLOUDY    26  20  77 CALM      30.37F
NEW YORK CITY  CLOUDY    37  20  50 E9        30.36F WCI  30
CENTRAL PARK   PTCLDY    35  17  47 VRB5      30.38F WCI  31
$$

NYZ005>009-017-018-044>046-055-056-211300-
CENTRAL


CITY           SKY/WX    TMP DP  RH WIND       PRES   REMARKS
FULTON         PTCLDY    30  17  58 SE7G18    30.21F WCI  23
SYRACUSE       CLOUDY    26  17  68 E10       30.23F WCI  16
ROME           PTCLDY    26  15  63 E10       30.31S WCI  16
ELMIRA         CLOUDY    30  20  66 VRB3      30.24S
BINGHAMTON     CLOUDY    27  11  51 S10       30.23R WCI  17
MONTICELLO     CLOUDY    21  14  73 E6        30.32R WCI  14
$$

NYZ026>034-041>043-087-211300-
NORTH


CITY           SKY/WX    TMP DP  RH WIND       PRES   REMARKS
WATERTOWN      CLOUDY    24  19  81 E9        30.20F WCI  14
FORT DRUM      NOT AVBL
OGDENSBURG     FAIR      24  17  74 CALM      30.25S
MASSENA        PTCLDY    19  15  84 CALM      30.28F
SARANAC LAKE   CLOUDY     6   4  91 CALM      30.19F
PLATTSBURGH    CLOUDY    15  11  83 CALM      30.32F
$$

NYZ001>004-010>016-019>021-085-211300-
WEST


CITY           SKY/WX    TMP DP  RH WIND       PRES   REMARKS
NIAGARA FALLS  CLOUDY    36  21  54 SE3       30.06F
BUFFALO        CLOUDY    39  22  50 SE7       30.06F WCI  34
DUNKIRK        CLOUDY    44  27  51 N9        30.05F
JAMESTOWN      CLOUDY    39  19  45 S13       30.08F WCI  32
WELLSVILLE     CLOUDY    37  15  40 SE9       30.14F WCI  30
ROCHESTER      CLOUDY    33  18  53 SE7       30.12F WCI  27
PENN YAN       CLOUDY    34  15  46 S7        30.18F WCI  28
$$

             KEY
       WCI = WIND CHILL INDEX
       VSB = VISIBILITY
       HX  = HEAT INDEX
$$




USA.gov is the U.S. government's official web portal to all federal, state and local government web resources and services.